User: anonymous   Login
Location: Mentone
(34.5413°N, 85.5351°W)
Time: 05:23:00
(UTC-05:00)
Language:

AO-Echo - Orbit

View from above orbital plane
View from above orbital plane
View from above satellite
View from above satellite

Ground track
Ground track

The orbit data is extracted from the following two-line orbital elements,

1 28375U 04025K   17147.75381738 +.00000021 +00000-0 +19463-4 0  9998
2 28375 098.3579 081.6366 0082310 346.0168 013.8743 14.41839243678815
Epoch (UTC): 27 May 2017 18:05:29
Eccentricity: 0.0082310
inclination: 98.3579°
perigee height: 694 km
apogee height: 811 km
right ascension of ascending node: 81.6366°
argument of perigee: 346.0168°
revolutions per day: 14.41839243
mean anomaly at epoch: 13.8743°
orbit number at epoch: 67881

The dashed part of the orbit path shows where the satellite is in the earth's shadow,  

DLR